Home > Weather > Worms > Past weeks

Flag for Germany Weather for the Past 2 Weeks in Worms, Rhineland-Palatinate, Germany

Now
36 °F

Clear.


Feels Like: 32 °F
Forecast: 38 / 46 °F
Wind: 5 mph from East

Location: Wiesbaden Airport

Current Time: Feb 13, 2016 at 6:14:05 AM

Latest Report: Feb 13, 2016 at 4:58 AM


Visibility: N/A

Pressure: 29.38 "Hg

Humidity: N/A

Dew point: N/A

Location of WormsLocation

Historic Weather in Worms — Graph

°F

Worms Temperature Yesterday

Maximum temperature yesterday: 43 °F (at 1:58 PM)
Minimum temperature yesterday: 32 °F (at 5:03 AM)
Average temperature yesterday: 36 °F

High & Low Weather Summary for the Past Weeks

 TemperatureHumidityPressure
High55 °F (Feb 1, 2:58 AM)100% (Feb 4, 11:56 AM)30.42 "Hg (Feb 4, 11:56 AM)
Low32 °F (Jan 29, 4:58 AM)62% (Jan 29, 1:58 PM)29.03 "Hg (Feb 9, 5:58 PM)
Average43 °F83%29.87 "Hg
* Reported Jan 29 4:58 AM — Feb 13 4:58 AM, Worms, Weather by CustomWeather, © 2016

Note: Actual official high and low records may vary slightly from our data, if they occured in-between our weather recording intervals... More about our weather records

Advertising

Worms Weather History for the Previous 24 Hours

 ConditionsComfort  
Time TempWeatherWind HumidityBarometerVisibility
4:58 AM
Sat, Feb 13
36 °FClear.5 mphN/A29.38 "HgN/A
3:58 AM36 °FClear.6 mphN/A29.38 "HgN/A
2:58 AM36 °FClear.5 mphN/A29.39 "HgN/A
1:58 AM36 °FClear.6 mphN/A29.39 "HgN/A
12:58 AM37 °FClear.9 mphN/A29.39 "HgN/A
11:58 PM
Fri, Feb 12
36 °FClear.8 mphN/A29.38 "HgN/A
10:58 PM37 °FOvercast.9 mphN/A29.39 "HgN/A
9:58 PM39 °FMostly cloudy.10 mph70%29.40 "HgN/A
8:58 PM39 °FMostly cloudy.10 mph70%29.41 "HgN/A
7:58 PM39 °FMostly cloudy.8 mph70%29.42 "HgN/A
6:58 PM37 °FPassing clouds.10 mph75%29.44 "HgN/A
5:58 PM39 °FPassing clouds.8 mph75%29.44 "HgN/A
4:58 PM41 °FOvercast.10 mph70%29.43 "HgN/A
3:58 PM41 °FScattered clouds.10 mph76%29.45 "HgN/A
2:58 PM41 °FPartly sunny.9 mph76%29.48 "HgN/A
1:58 PM43 °FPartly sunny.6 mph71%29.51 "HgN/A
12:58 PM39 °FOvercast.2 mphN/A29.54 "HgN/A
12:54 PM39 °FChilly.N/A81%29.54 "HgN/A
11:58 AM37 °FPartly sunny.5 mph87%29.57 "HgN/A
10:58 AM36 °FLow clouds.7 mph100%29.62 "HgN/A
10:01 AM34 °FMostly cloudy.6 mph100%29.62 "HgN/A
9:58 AM34 °FCloudy.7 mph100%29.65 "HgN/A
8:58 AM34 °FCloudy.No wind100%29.67 "HgN/A
7:58 AM32 °FMostly cloudy.2 mph100%29.69 "HgN/A
6:58 AM34 °FLow clouds.5 mph100%29.70 "HgN/A
6:01 AM32 °FLow clouds.2 mph100%29.68 "HgN/A
Weather by CustomWeather, © 2016

See weather overviewHow to use our weather pages